QPF
0.01 0.01 0.01 0.02 0.02 0.03 0.03 0.04 0.05 0.05 0.04 0.04 0.03 0.02 0.02 0.02 0.02 0.02 0.01 0.02 0.02 0.02 0.02 0.02 0.02 0.03 0.03 0.04 0.04 0.04 0.04 0.07 0.09 0.10 0.09 0.07 0.05 0.04
0.01 0.01 0.01 0.01 0.02 0.02 0.03 0.03 0.03 0.04 0.03 0.02 0.02 0.01 0.01 0.01 0.01 0.01 0.01 0.02 0.03 0.03 0.03 0.03 0.02 0.02 0.03 0.03 0.03 0.03 0.03 0.03 0.03 0.04 0.05 0.05 0.04 0.04
0.00 0.01 0.00 0.01 0.01 0.01 0.01 0.01 0.02 0.02 0.02 0.01 0.00 0.00 0.01 0.01 0.01 0.01 0.01 0.01 0.02 0.02 0.02 0.02 0.02 0.02 0.02 0.02 0.03 0.03 0.03 0.03 0.02 0.03 0.04 0.04 0.04 0.04
0.00 0.00 0.00 0.01 0.01 0.01 0.01 0.01 0.01 0.01 0.02 0.01 0.01 0.00 0.00 0.00 0.00 0.01 0.01 0.01 0.01 0.02 0.02 0.02 0.02 0.02 0.03 0.03 0.03 0.04 0.04 0.04 0.04 0.03 0.03 0.03 0.04 0.05
0.00 0.00 0.00 0.01 0.01 0.01 0.01 0.01 0.01 0.01 0.01 0.01 0.01 0.01 0.01 0.01 0.01 0.01 0.01 0.01 0.01 0.01 0.01 0.01 0.01 0.01 0.02 0.03 0.03 0.04 0.05 0.05 0.05 0.05 0.04 0.03 0.03 0.03
0.00 0.00 0.01 0.01 0.01 0.01 0.01 0.01 0.01 0.01 0.01 0.01 0.01 0.01 0.01 0.01 0.02 0.02 0.02 0.01 0.01 0.01 0.01 0.01 0.01 0.01 0.01 0.02 0.03 0.03 0.03 0.04 0.04 0.04 0.04 0.03 0.03 0.02
0.01 0.01 0.01 0.01 0.01 0.01 0.01 0.01 0.01 0.01 0.02 0.02 0.01 0.01 0.01 0.01 0.01 0.01 0.02 0.02 0.02 0.02 0.01 0.01 0.01 0.01 0.01 0.02 0.02 0.03 0.04 0.04 0.04 0.04 0.04 0.03 0.02 0.02
0.01 0.01 0.01 0.01 0.01 0.01 0.01 0.01 0.01 0.01 0.02 0.02 0.02 0.01 0.01 0.01 0.01 0.01 0.02 0.02 0.02 0.02 0.01 0.01 0.01 0.01 0.01 0.01 0.01 0.02 0.02 0.03 0.03 0.04 0.04 0.04 0.05 0.04
0.01 0.00 0.00 0.00 0.01 0.00 0.01 0.01 0.01 0.01 0.01 0.01 0.01 0.01 0.01 0.01 0.01 0.01 0.01 0.01 0.02 0.02 0.02 0.01 0.01 0.01 0.00 0.00 0.00 0.01 0.01 0.01 0.02 0.02 0.02 0.02 0.03 0.04
0.01 0.01 0.00 0.00 0.00 0.00 0.00 0.00 0.00 0.00 0.01 0.01 0.01 0.01 0.01 0.01 0.01 0.01 0.01 0.01 0.01 0.01 0.01 0.01 0.00 0.00 0.00 0.00 0.00 0.00 0.00 0.00 0.01 0.01 0.01 0.01 0.02 0.02
0.01 0.01 0.01 0.00 0.01 0.01 0.01 0.01 0.01 0.01 0.01 0.01 0.01 0.01 0.01 0.01 0.01 0.01 0.02 0.01 0.01 0.01 0.00 0.00 0.00 0.00 0.00 0.00 0.00 0.00 0.00 0.00 0.00 0.00 0.01 0.01 0.01 0.01
0.01 0.01 0.01 0.01 0.01 0.01 0.01 0.01 0.01 0.01 0.01 0.01 0.01 0.01 0.01 0.01 0.01 0.01 0.01 0.01 0.01 0.01 0.00 0.00 0.00 0.00 0.00 0.00 0.00 0.00 0.00 0.00 0.00 0.00 0.00 0.01 0.01 0.01
0.01 0.01 0.01 0.01 0.01 0.01 0.01 0.01 0.01 0.01 0.01 0.01 0.01 0.01 0.01 0.01 0.01 0.01 0.01 0.01 0.01 0.01 0.00 0.00 0.00 0.00 0.00 0.00 0.00 0.00 0.00 0.00 0.00 0.00 0.00 0.00 0.00 0.01
0.01 0.01 0.00 0.01 0.01 0.02 0.01 0.01 0.02 0.01 0.01 0.01 0.01 0.01 0.01 0.00 0.01 0.01 0.01 0.01 0.01 0.01 0.01 0.01 0.01 0.01 0.01 0.01 0.00 0.00 0.00 0.00 0.00 0.00 0.00 0.00 0.00 0.01
0.01 0.01 0.01 0.01 0.01 0.02 0.02 0.02 0.01 0.01 0.01 0.01 0.01 0.01 0.01 0.01 0.01 0.00 0.00 0.01 0.01 0.01 0.01 0.00 0.00 0.00 0.01 0.01 0.00 0.00 0.00 0.00 0.00 0.00 0.00 0.00 0.00 0.01
0.01 0.01 0.01 0.01 0.01 0.01 0.02 0.02 0.01 0.01 0.01 0.01 0.01 0.01 0.00 0.01 0.01 0.01 0.01 0.00 0.00 0.01 0.01 0.00 0.00 0.00 0.01 0.01 0.01 0.00 0.00 0.01 0.01 0.01 0.01 0.01 0.01 0.01
0.02 0.02 0.02 0.02 0.02 0.01 0.01 0.01 0.01 0.01 0.01 0.01 0.01 0.01 0.01 0.01 0.01 0.01 0.01 0.01 0.01 0.00 0.00 0.00 0.00 0.00 0.00 0.01 0.01 0.01 0.01 0.01 0.01 0.01 0.01 0.01 0.00 0.00
0.03 0.02 0.02 0.02 0.01 0.01 0.01 0.01 0.01 0.01 0.01 0.01 0.01 0.01 0.01 0.01 0.01 0.01 0.01 0.01 0.01 0.01 0.01 0.01 0.01 0.01 0.01 0.01 0.01 0.01 0.01 0.01 0.02 0.02 0.01 0.01 0.01 0.00
0.03 0.02 0.02 0.02 0.01 0.01 0.01 0.01 0.01 0.01 0.01 0.01 0.01 0.01 0.01 0.01 0.01 0.01 0.01 0.01 0.01 0.01 0.01 0.01 0.01 0.02 0.02 0.01 0.00 0.00 0.01 0.02 0.02 0.02 0.01 0.01 0.01 0.00
0.02 0.02 0.02 0.02 0.02 0.01 0.01 0.01 0.01 0.01 0.01 0.01 0.01 0.01 0.01 0.01 0.01 0.01 0.01 0.01 0.01 0.01 0.01 0.01 0.01 0.02 0.02 0.02 0.01 0.01 0.01 0.02 0.03 0.03 0.01 0.01 0.00 0.00
0.02 0.02 0.02 0.02 0.02 0.02 0.02 0.01 0.01 0.01 0.01 0.01 0.01 0.01 0.02 0.02 0.02 0.01 0.01 0.01 0.01 0.01 0.01 0.01 0.01 0.01 0.02 0.02 0.02 0.01 0.01 0.02 0.03 0.03 0.02 0.01 0.01 0.00
0.02 0.02 0.02 0.02 0.02 0.02 0.02 0.02 0.02 0.02 0.02 0.02 0.02 0.02 0.02 0.02 0.02 0.01 0.01 0.02 0.02 0.01 0.01 0.01 0.01 0.01 0.01 0.02 0.01 0.01 0.01 0.01 0.02 0.03 0.02 0.02 0.02 0.02
0.02 0.02 0.02 0.02 0.02 0.02 0.02 0.02 0.01 0.01 0.02 0.02 0.02 0.02 0.02 0.02 0.02 0.02 0.02 0.02 0.02 0.01 0.01 0.01 0.01 0.01 0.01 0.01 0.01 0.01 0.01 0.01 0.02 0.02 0.01 0.01 0.01 0.01
MSLP
1018.52 1018.66 1018.77 1018.85 1018.89 1018.88 1018.84 1018.76 1018.65 1018.54 1018.41 1018.27 1018.13 1017.98 1017.82 1017.63 1017.42 1017.18 1016.93 1016.67 1016.40 1016.14 1015.89 1015.65 1015.43 1015.21 1015.00 1014.79 1014.58 1014.37 1014.15 1013.93 1013.72 1013.52 1013.31 1013.10 1012.89 1012.66
1018.11 1018.26 1018.38 1018.47 1018.53 1018.54 1018.52 1018.48 1018.42 1018.35 1018.27 1018.18 1018.09 1017.97 1017.84 1017.67 1017.47 1017.23 1016.98 1016.71 1016.44 1016.19 1015.94 1015.72 1015.51 1015.32 1015.13 1014.94 1014.74 1014.54 1014.33 1014.11 1013.90 1013.68 1013.47 1013.25 1013.02 1012.78
1017.52 1017.68 1017.81 1017.91 1017.98 1018.03 1018.06 1018.07 1018.07 1018.07 1018.06 1018.04 1018.01 1017.94 1017.84 1017.69 1017.50 1017.26 1016.99 1016.71 1016.42 1016.15 1015.89 1015.66 1015.45 1015.25 1015.07 1014.89 1014.70 1014.51 1014.30 1014.09 1013.88 1013.66 1013.44 1013.22 1012.99 1012.75
1016.79 1016.95 1017.09 1017.21 1017.32 1017.41 1017.49 1017.57 1017.65 1017.72 1017.80 1017.86 1017.89 1017.87 1017.81 1017.68 1017.50 1017.26 1016.98 1016.67 1016.36 1016.05 1015.77 1015.52 1015.29 1015.08 1014.89 1014.70 1014.51 1014.32 1014.12 1013.91 1013.70 1013.49 1013.27 1013.06 1012.84 1012.61
1015.93 1016.10 1016.26 1016.42 1016.56 1016.70 1016.85 1017.00 1017.16 1017.32 1017.47 1017.60 1017.70 1017.74 1017.71 1017.61 1017.44 1017.20 1016.91 1016.59 1016.26 1015.93 1015.62 1015.34 1015.08 1014.85 1014.64 1014.43 1014.23 1014.03 1013.83 1013.62 1013.41 1013.21 1013.01 1012.81 1012.60 1012.38
1014.99 1015.18 1015.37 1015.56 1015.75 1015.95 1016.16 1016.38 1016.60 1016.83 1017.05 1017.25 1017.40 1017.49 1017.50 1017.44 1017.29 1017.07 1016.78 1016.46 1016.12 1015.78 1015.46 1015.15 1014.87 1014.62 1014.38 1014.15 1013.93 1013.71 1013.50 1013.29 1013.08 1012.89 1012.70 1012.52 1012.33 1012.13
1013.99 1014.21 1014.43 1014.66 1014.90 1015.15 1015.41 1015.69 1015.97 1016.25 1016.52 1016.76 1016.96 1017.09 1017.15 1017.12 1017.01 1016.82 1016.57 1016.27 1015.95 1015.62 1015.30 1014.98 1014.69 1014.41 1014.14 1013.89 1013.64 1013.40 1013.17 1012.96 1012.76 1012.57 1012.39 1012.23 1012.06 1011.88
1012.96 1013.20 1013.46 1013.73 1014.02 1014.31 1014.61 1014.92 1015.24 1015.56 1015.86 1016.13 1016.36 1016.53 1016.63 1016.64 1016.58 1016.45 1016.26 1016.01 1015.74 1015.44 1015.14 1014.84 1014.54 1014.25 1013.96 1013.68 1013.40 1013.13 1012.88 1012.65 1012.45 1012.26 1012.10 1011.95 1011.80 1011.64
1011.92 1012.18 1012.47 1012.78 1013.09 1013.42 1013.75 1014.08 1014.42 1014.75 1015.07 1015.36 1015.62 1015.82 1015.96 1016.04 1016.05 1015.99 1015.87 1015.70 1015.49 1015.26 1015.00 1014.73 1014.44 1014.14 1013.83 1013.52 1013.21 1012.90 1012.62 1012.37 1012.16 1011.97 1011.82 1011.68 1011.55 1011.40
1010.88 1011.16 1011.47 1011.80 1012.14 1012.49 1012.83 1013.18 1013.52 1013.86 1014.19 1014.50 1014.78 1015.02 1015.21 1015.35 1015.43 1015.46 1015.43 1015.36 1015.24 1015.07 1014.88 1014.64 1014.37 1014.07 1013.75 1013.40 1013.05 1012.71 1012.39 1012.11 1011.87 1011.67 1011.52 1011.39 1011.26 1011.13
1009.86 1010.16 1010.48 1010.83 1011.18 1011.53 1011.89 1012.24 1012.59 1012.94 1013.28 1013.60 1013.91 1014.20 1014.44 1014.65 1014.81 1014.93 1015.00 1015.01 1014.98 1014.89 1014.76 1014.56 1014.32 1014.02 1013.68 1013.31 1012.92 1012.53 1012.17 1011.85 1011.57 1011.35 1011.18 1011.04 1010.92 1010.80
1008.90 1009.20 1009.53 1009.88 1010.24 1010.60 1010.96 1011.32 1011.68 1012.05 1012.41 1012.76 1013.11 1013.44 1013.74 1014.01 1014.25 1014.45 1014.60 1014.70 1014.74 1014.72 1014.64 1014.48 1014.26 1013.97 1013.61 1013.22 1012.79 1012.36 1011.94 1011.57 1011.25 1010.99 1010.79 1010.64 1010.51 1010.38
1008.01 1008.30 1008.63 1008.99 1009.35 1009.72 1010.10 1010.47 1010.86 1011.25 1011.64 1012.03 1012.42 1012.80 1013.16 1013.49 1013.78 1014.04 1014.25 1014.41 1014.51 1014.55 1014.50 1014.38 1014.18 1013.89 1013.53 1013.10 1012.64 1012.17 1011.71 1011.28 1010.91 1010.60 1010.36 1010.17 1010.02 1009.87
1007.20 1007.49 1007.82 1008.18 1008.55 1008.93 1009.33 1009.73 1010.15 1010.58 1011.02 1011.46 1011.89 1012.32 1012.72 1013.09 1013.43 1013.72 1013.97 1014.17 1014.30 1014.36 1014.34 1014.24 1014.05 1013.77 1013.40 1012.96 1012.48 1011.97 1011.46 1010.98 1010.55 1010.19 1009.89 1009.65 1009.46 1009.29
1006.48 1006.77 1007.10 1007.46 1007.84 1008.25 1008.67 1009.12 1009.58 1010.06 1010.55 1011.04 1011.52 1011.99 1012.42 1012.82 1013.17 1013.48 1013.74 1013.94 1014.08 1014.15 1014.14 1014.04 1013.86 1013.59 1013.22 1012.78 1012.28 1011.75 1011.20 1010.68 1010.19 1009.77 1009.40 1009.10 1008.86 1008.64
1005.85 1006.14 1006.47 1006.84 1007.24 1007.67 1008.13 1008.62 1009.14 1009.67 1010.22 1010.76 1011.28 1011.77 1012.23 1012.64 1012.99 1013.29 1013.53 1013.71 1013.83 1013.89 1013.87 1013.78 1013.60 1013.33 1012.98 1012.55 1012.05 1011.50 1010.93 1010.37 1009.83 1009.33 1008.90 1008.53 1008.21 1007.93
1005.30 1005.59 1005.93 1006.31 1006.73 1007.19 1007.69 1008.23 1008.79 1009.38 1009.98 1010.56 1011.12 1011.64 1012.10 1012.51 1012.84 1013.11 1013.32 1013.46 1013.55 1013.58 1013.54 1013.44 1013.27 1013.01 1012.67 1012.25 1011.76 1011.21 1010.62 1010.02 1009.43 1008.88 1008.37 1007.91 1007.51 1007.16
1004.81 1005.12 1005.47 1005.87 1006.31 1006.80 1007.33 1007.91 1008.53 1009.16 1009.80 1010.42 1011.01 1011.54 1012.01 1012.39 1012.70 1012.93 1013.10 1013.20 1013.24 1013.23 1013.17 1013.04 1012.86 1012.61 1012.28 1011.87 1011.39 1010.84 1010.24 1009.61 1008.98 1008.36 1007.77 1007.23 1006.75 1006.31
1004.40 1004.73 1005.10 1005.51 1005.98 1006.49 1007.06 1007.67 1008.32 1008.99 1009.66 1010.32 1010.92 1011.46 1011.92 1012.29 1012.56 1012.76 1012.87 1012.92 1012.91 1012.85 1012.75 1012.60 1012.40 1012.14 1011.80 1011.40 1010.91 1010.36 1009.75 1009.10 1008.42 1007.75 1007.09 1006.46 1005.89 1005.36
1004.08 1004.44 1004.83 1005.27 1005.75 1006.29 1006.88 1007.51 1008.18 1008.88 1009.57 1010.23 1010.85 1011.39 1011.84 1012.19 1012.43 1012.59 1012.66 1012.65 1012.59 1012.48 1012.32 1012.13 1011.89 1011.59 1011.24 1010.82 1010.32 1009.76 1009.13 1008.45 1007.73 1007.00 1006.28 1005.58 1004.92 1004.31
1003.91 1004.29 1004.71 1005.17 1005.67 1006.21 1006.81 1007.45 1008.13 1008.83 1009.52 1010.19 1010.80 1011.33 1011.77 1012.10 1012.32 1012.44 1012.46 1012.40 1012.28 1012.11 1011.89 1011.63 1011.34 1010.99 1010.59 1010.13 1009.60 1009.00 1008.35 1007.64 1006.89 1006.12 1005.35 1004.59 1003.86 1003.18
1003.90 1004.32 1004.76 1005.23 1005.74 1006.29 1006.88 1007.51 1008.18 1008.86 1009.54 1010.19 1010.79 1011.30 1011.72 1012.02 1012.22 1012.30 1012.28 1012.17 1011.98 1011.74 1011.45 1011.12 1010.74 1010.33 1009.86 1009.34 1008.76 1008.12 1007.43 1006.69 1005.91 1005.11 1004.31 1003.51 1002.73 1002.00
1004.09 1004.54 1005.00 1005.48 1005.99 1006.52 1007.09 1007.70 1008.33 1008.98 1009.62 1010.23 1010.79 1011.28 1011.66 1011.94 1012.10 1012.14 1012.08 1011.92 1011.67 1011.36 1010.99 1010.57 1010.11 1009.61 1009.06 1008.47 1007.83 1007.14 1006.41 1005.64 1004.84 1004.02 1003.20 1002.39 1001.59 1000.82
Thickness
5566 5566 5566 5566 5566 5566 5566 5566 5566 5569 5571 5569 5567 5567 5565 5564 5563 5563 5562 5562 5561 5561 5560 5559 5558 5557 5556 5555 5553 5552 5552 5552 5552 5552 5553 5553 5554 5554
5559 5559 5559 5559 5558 5558 5558 5558 5558 5559 5562 5561 5558 5556 5555 5554 5554 5553 5552 5552 5552 5551 5551 5550 5549 5548 5547 5546 5545 5544 5544 5544 5544 5545 5545 5546 5546 5546
5552 5552 5552 5551 5550 5550 5549 5549 5550 5550 5552 5551 5548 5547 5546 5545 5544 5543 5543 5542 5542 5542 5542 5541 5540 5539 5538 5538 5537 5536 5536 5536 5536 5537 5537 5538 5538 5539
5545 5544 5545 5544 5543 5542 5542 5542 5542 5542 5542 5542 5539 5537 5537 5536 5535 5534 5533 5533 5533 5533 5533 5532 5531 5530 5529 5529 5529 5528 5528 5528 5529 5529 5530 5530 5530 5530
5538 5537 5537 5536 5535 5534 5534 5534 5534 5534 5533 5532 5531 5528 5527 5526 5525 5524 5524 5524 5524 5524 5524 5523 5522 5521 5521 5521 5521 5520 5520 5520 5521 5521 5521 5521 5521 5522
5531 5530 5529 5529 5528 5527 5526 5526 5525 5524 5523 5523 5521 5519 5517 5516 5515 5514 5515 5514 5514 5514 5514 5513 5513 5512 5512 5512 5512 5512 5512 5512 5512 5513 5513 5513 5513 5513
5523 5522 5522 5522 5521 5520 5519 5517 5516 5515 5514 5513 5512 5510 5508 5507 5506 5506 5505 5505 5504 5504 5503 5503 5503 5503 5502 5502 5503 5503 5503 5503 5503 5504 5504 5504 5504 5504
5514 5514 5514 5513 5513 5513 5512 5511 5510 5508 5506 5505 5504 5503 5502 5500 5498 5497 5495 5494 5494 5494 5492 5494 5493 5493 5493 5493 5493 5494 5494 5494 5494 5495 5495 5495 5495 5495
5506 5505 5505 5506 5505 5504 5504 5503 5502 5501 5501 5499 5497 5496 5494 5492 5490 5488 5486 5484 5484 5483 5481 5484 5484 5484 5484 5484 5484 5484 5485 5485 5485 5485 5486 5486 5485 5485
5498 5497 5497 5497 5496 5495 5494 5493 5493 5492 5491 5491 5491 5489 5487 5485 5482 5481 5478 5475 5473 5472 5470 5471 5473 5473 5475 5475 5475 5475 5475 5475 5475 5476 5476 5476 5475 5475
5489 5489 5489 5489 5489 5488 5485 5484 5483 5482 5482 5482 5481 5480 5478 5476 5473 5469 5466 5464 5464 5463 5460 5459 5461 5462 5464 5466 5467 5466 5465 5465 5465 5466 5466 5465 5465 5466
5479 5479 5480 5480 5480 5479 5477 5475 5474 5473 5471 5470 5469 5468 5466 5464 5462 5460 5457 5454 5452 5452 5451 5448 5448 5447 5452 5456 5456 5455 5454 5455 5455 5455 5455 5455 5455 5455
5469 5470 5471 5471 5471 5470 5469 5467 5466 5464 5462 5459 5457 5455 5453 5452 5450 5448 5446 5444 5442 5441 5440 5437 5436 5435 5435 5440 5444 5444 5443 5443 5444 5444 5444 5444 5444 5445
5460 5461 5462 5462 5461 5461 5459 5458 5456 5454 5451 5448 5446 5444 5442 5441 5439 5437 5435 5434 5433 5431 5429 5426 5425 5424 5423 5426 5430 5433 5433 5432 5432 5433 5433 5434 5434 5435
5450 5451 5451 5451 5450 5450 5449 5447 5445 5442 5440 5438 5436 5434 5432 5430 5428 5426 5424 5423 5421 5420 5418 5417 5415 5414 5413 5414 5416 5418 5419 5422 5422 5422 5422 5423 5424 5425
5438 5439 5439 5438 5437 5437 5436 5435 5433 5431 5430 5428 5425 5423 5420 5418 5416 5415 5413 5412 5410 5410 5408 5407 5405 5404 5404 5405 5405 5407 5407 5408 5411 5411 5411 5413 5414 5414
5425 5425 5425 5425 5424 5424 5422 5421 5420 5419 5418 5415 5413 5411 5410 5408 5406 5404 5402 5401 5400 5399 5399 5398 5397 5396 5396 5396 5397 5399 5399 5400 5400 5401 5402 5404 5406 5406
5413 5413 5414 5414 5414 5413 5412 5411 5409 5408 5406 5405 5403 5401 5400 5398 5396 5394 5393 5391 5390 5390 5389 5388 5387 5388 5389 5391 5390 5391 5391 5391 5392 5392 5392 5393 5398 5399
5402 5403 5403 5404 5403 5403 5402 5401 5400 5398 5396 5394 5393 5391 5390 5388 5387 5385 5383 5382 5382 5381 5380 5378 5377 5377 5379 5383 5385 5383 5381 5382 5383 5384 5385 5385 5387 5390
5392 5393 5394 5394 5394 5393 5392 5391 5390 5388 5387 5386 5384 5383 5381 5380 5378 5377 5375 5374 5374 5373 5371 5370 5369 5369 5369 5370 5371 5374 5374 5373 5373 5375 5377 5378 5380 5383
5384 5385 5385 5385 5385 5385 5384 5383 5382 5381 5379 5378 5377 5375 5373 5371 5370 5369 5368 5367 5366 5365 5364 5364 5363 5362 5361 5360 5362 5366 5367 5367 5366 5366 5368 5370 5372 5375
5377 5378 5378 5378 5378 5377 5376 5375 5374 5373 5372 5371 5370 5368 5366 5364 5363 5362 5361 5360 5359 5358 5357 5356 5356 5355 5354 5354 5355 5357 5359 5361 5362 5361 5361 5361 5360 5362
5370 5370 5371 5371 5371 5370 5369 5369 5368 5367 5366 5365 5364 5362 5360 5358 5357 5356 5355 5354 5353 5351 5350 5349 5349 5348 5347 5347 5347 5348 5349 5352 5354 5355 5356 5356 5356 5357